Pagina principale
METAR-TAF:

METAR-TAF

Aeroporti :

Passo di Resia, Italia

latitudine: 46-50N, longitudine: 010-30E, altezza: 1800 m

Osservazione

Il bollettino è stato emesso 48 minuti fa, alle 05:55 UTC
Vento 3 kt da nord-est
Temperature 8°C
Umidità 81%
Pressione 1010 hPa
Visibilità 10 km o più
Nuvoloso ad un'altezza di 3000 ft

METAR: LIVE 260555Z 04003KT 9999 BKN030 08/05 Q1010 RMK BKN VIS MIN 9999

Ora: 08:43 (06:43 UTC)


TAF: mancante

Osservazioni e previsioni meteorologiche di più di 4000 aeroporti (messaggi METAR e TAF).

Le stazioni disponibili sono rappresentate dai dischi gialli e rossi sulla carta.

Puntare il mouse per vedere il nome della stazione.

Clicca sopra per visualizzare le osservazioni e previsioni meteorologiche.

Per cambiare la mappa : fare clic sui pulsanti verdi con una croce nera per ingrandire, il pulsante verde con un trattino per diminuire, o sulla freccia verde per le mappe adiacenti.


METAR-TAF: